Weather History for McMinnville, OR

Change the Weather History Date:

Friday, October 25, 2013

  Actual Average Record
Temperature  
Mean Temperature 50 °F 49 °F  
Max Temperature 54 °F 59 °F 79 °F (1929)
Min Temperature 46 °F 40 °F 22 °F (1919)
Degree Days  
Heating Degree Days 15 16  
Month to date heating degree days 313 307  
Since 1 July heating degree days 448 523  
Cooling Degree Days 0 0  
Month to date cooling degree days 0 0  
Year to date cooling degree days 405 214  
Moisture  
Dew Point 49 °F    
Average Humidity 95    
Maximum Humidity 100    
Minimum Humidity 89    
Precipitation  
Precipitation 0.00 in 0.12 in 2.72 in (1943)
Month to date precipitation 0.70 2.38  
Year to date precipitation 17.95 26.09  
Snow  
Snow 0.00 in - - ()
Month to date snowfall 0.0  
Snow Depth 0.00 in    
Sea Level Pressure  
Sea Level Pressure 30.22 in    
Wind  
Wind Speed 2 mph (NNE)    
Max Wind Speed 8 mph    
Max Gust Speed 10 mph    
Visibility 3 miles    
Events Fog    
T = Trace of Precipitation, MM = Missing Value Source: NWS Daily Summary

Daily Weather History Graph

Daily Weather History Graph

Search for Another Location

Airport:

Trip Planner

Search our weather history database for the weather conditions in past years. The results will help you decide how hot, cold, wet, or windy it might be!

Date:

Astronomy

Oct. 25, 2013 Rise Set
Actual Time 7:42 AM PDT 6:10 PM PDT
Civil Twilight 7:12 AM PDT 6:40 PM PDT
Nautical Twilight 6:37 AM PDT 7:14 PM PDT
Astronomical Twilight 6:03 AM PDT 7:48 PM PDT
Moon 11:31 PM PDT 1:30 PM PDT
Length of Visible Light 11h 28m
Length of Day
10h 27m
Waning Gibbous, 61% of the Moon is Illuminated
Oct 25
Waning Gibbous
Oct 26
Last Quarter
Nov 3
New
Nov 9
First Quarter
Nov 17
Full

Hourly Weather History & Observations

Time (PDT) Temp. Windchill Dew Point Humidity Pressure Visibility Wind Dir Wind Speed Gust Speed Precip Events Conditions
12:53 AM 46.0 °F - 46.0 °F 100% 30.12 in 5.0 mi Calm Calm - N/A   Clear
1:04 AM 46.4 °F - 46.4 °F 100% 30.12 in 4.0 mi Calm Calm - N/A   Scattered Clouds
1:13 AM 46.4 °F - 46.4 °F 100% 30.13 in 2.5 mi Calm Calm - N/A   Mostly Cloudy
1:16 AM 46.4 °F - 46.4 °F 100% 30.13 in 1.0 mi Calm Calm - N/A   Mist
1:23 AM 46.4 °F - 46.4 °F 100% 30.13 in 0.5 mi Calm Calm - N/A Fog Fog
1:30 AM 48.2 °F - 48.2 °F 100% 30.13 in 1.5 mi West 3.5 mph - N/A   Overcast
1:34 AM 48.2 °F - 48.2 °F 100% 30.13 in 3.0 mi West 3.5 mph - N/A   Overcast
1:53 AM 46.0 °F 44.8 °F 46.0 °F 100% 30.14 in 4.0 mi West 3.5 mph - N/A   Overcast
2:53 AM 48.0 °F - 48.0 °F 100% 30.16 in 6.0 mi Calm Calm - N/A   Overcast
3:53 AM 48.9 °F - 48.0 °F 97% 30.17 in 4.0 mi Calm Calm - N/A   Overcast
4:06 AM 48.2 °F - 48.2 °F 100% 30.17 in 1.8 mi Calm Calm - N/A   Overcast
4:26 AM 48.2 °F - 48.2 °F 100% 30.17 in 0.8 mi Calm Calm - N/A   Mist
4:51 AM 48.2 °F - 48.2 °F 100% 30.18 in 0.2 mi Calm Calm - N/A Fog Fog
4:53 AM 48.0 °F - 48.0 °F 100% 30.18 in 0.2 mi Calm Calm - N/A Fog Fog
5:53 AM 48.9 °F - 48.9 °F 100% 30.20 in 0.2 mi Calm Calm - N/A Fog Fog
6:53 AM 48.9 °F - 48.9 °F 100% 30.21 in 0.2 mi Calm Calm - 0.01 in Fog Fog
7:36 AM 48.2 °F - 48.2 °F 100% 30.22 in 0.5 mi Calm Calm - N/A Fog Fog
7:53 AM 48.9 °F - 48.9 °F 100% 30.23 in 0.5 mi Calm Calm - N/A Fog Fog
8:17 AM 48.2 °F - 48.2 °F 100% 30.23 in 0.2 mi Calm Calm - N/A Fog Fog
8:40 AM 48.2 °F - 48.2 °F 100% 30.24 in 0.5 mi Calm Calm - N/A Fog Fog
8:53 AM 48.9 °F - 48.9 °F 100% 30.24 in 0.5 mi Calm Calm - N/A Fog Fog
9:38 AM 50.0 °F - 50.0 °F 100% 30.25 in 1.0 mi NNW 3.5 mph - N/A   Overcast
9:53 AM 50.0 °F - 50.0 °F 100% 30.25 in 1.0 mi Calm Calm - N/A   Overcast
10:38 AM 51.8 °F - 51.8 °F 100% 30.26 in 1.8 mi Calm Calm - 0.01 in   Overcast
10:51 AM 51.8 °F - 51.8 °F 100% 30.26 in 2.0 mi Calm Calm - 0.01 in   Overcast
10:53 AM 51.1 °F - 51.1 °F 100% 30.26 in 2.0 mi Calm Calm - 0.01 in   Overcast
11:18 AM 51.8 °F - 51.8 °F 100% 30.26 in 3.0 mi Calm Calm - N/A   Overcast
11:34 AM 51.8 °F - 51.8 °F 100% 30.26 in 2.5 mi Calm Calm - N/A   Overcast
11:46 AM 51.8 °F - 51.8 °F 100% 30.26 in 4.0 mi Calm Calm - N/A   Overcast
11:53 AM 51.1 °F - 50.0 °F 96% 30.27 in 5.0 mi Calm Calm - N/A   Overcast
12:03 PM 51.8 °F - 50.0 °F 94% 30.26 in 5.0 mi Calm Calm - N/A   Overcast
12:53 PM 53.1 °F - 50.0 °F 89% 30.26 in 8.0 mi NNE 3.5 mph - N/A   Overcast
1:53 PM 54.0 °F - 50.0 °F 86% 30.25 in 7.0 mi East 3.5 mph - N/A   Overcast
2:53 PM 54.0 °F - 51.1 °F 90% 30.25 in 6.0 mi Calm Calm - N/A   Overcast
3:53 PM 53.1 °F - 50.0 °F 89% 30.25 in 5.0 mi NNW 3.5 mph - N/A   Overcast
4:53 PM 53.1 °F - 50.0 °F 89% 30.25 in 5.0 mi ENE 3.5 mph - N/A   Overcast
5:53 PM 53.1 °F - 50.0 °F 89% 30.25 in 4.0 mi NE 5.8 mph - N/A   Overcast
6:53 PM 53.1 °F - 50.0 °F 89% 30.25 in 6.0 mi Calm Calm - N/A   Overcast
7:53 PM 52.0 °F - 50.0 °F 93% 30.27 in 5.0 mi East 3.5 mph - N/A   Overcast
8:53 PM 53.1 °F - 51.1 °F 93% 30.27 in 6.0 mi NE 3.5 mph - N/A   Overcast
9:53 PM 53.1 °F - 50.0 °F 89% 30.28 in 9.0 mi NNE 3.5 mph - N/A   Overcast
10:53 PM 53.1 °F - 50.0 °F 89% 30.29 in 10.0 mi NNE 4.6 mph - N/A   Overcast
11:53 PM 53.1 °F - 50.0 °F 89% 30.28 in 10.0 mi North 3.5 mph - N/A   Overcast